This is the latest recevied weather packets stored in our database for station/object WK1F-2. If no packets are shown the sender has not sent any weather packets the latest 1 day(s).
| Time | Temp. | Humidity | Pressure | Rain* | Wind** | Luminosity | Snow |
|---|---|---|---|---|---|---|---|
| 1778038647 | 18.89° C | 74% | 1016.5 hPa | 0 mm | 0.89 m/s, 165° | - | - |
| 1778038347 | 19.44° C | 73% | 1016.5 hPa | 0 mm | 1.34 m/s, 175° | - | - |
| 1778038047 | 19.44° C | 73% | 1016.5 hPa | 0 mm | 0.89 m/s, 190° | - | - |
| 1778037747 | 19.44° C | 72% | 1016.5 hPa | 0 mm | 1.34 m/s, 181° | - | - |
| 1778037447 | 19.44° C | 71% | 1016.5 hPa | 0 mm | 0.45 m/s, 183° | - | - |
| 1778037147 | 20° C | 70% | 1016.4 hPa | 0 mm | 1.34 m/s, 194° | - | - |
| 1778036847 | 20° C | 69% | 1016.4 hPa | 0 mm | 1.79 m/s, 199° | - | - |
| 1778036547 | 20° C | 69% | 1016.3 hPa | 0 mm | 1.79 m/s, 168° | - | - |
| 1778036247 | 20° C | 68% | 1016.2 hPa | 0 mm | 2.24 m/s, 166° | - | - |
| 1778035947 | 20.56° C | 68% | 1016.2 hPa | 0 mm | 1.34 m/s, 133° | - | - |
| 1778035647 | 20.56° C | 68% | 1016.2 hPa | 0 mm | 1.34 m/s, 172° | - | - |
| 1778035347 | 20.56° C | 68% | 1016.1 hPa | 0 mm | 2.24 m/s, 180° | - | - |
| 1778035047 | 20.56° C | 68% | 1016.1 hPa | 0 mm | 2.24 m/s, 125° | - | - |
| 1778034747 | 20.56° C | 68% | 1016 hPa | 0 mm | 1.79 m/s, 132° | - | - |
| 1778034447 | 20.56° C | 67% | 1016 hPa | 0 mm | 1.34 m/s, 115° | - | - |
| 1778034147 | 20.56° C | 67% | 1015.9 hPa | 0 mm | 1.79 m/s, 153° | - | - |
| 1778033847 | 20.56° C | 68% | 1015.9 hPa | 0 mm | 1.34 m/s, 132° | - | - |
| 1778033547 | 20.56° C | 68% | 1015.8 hPa | 0 mm | 1.79 m/s, 176° | - | - |
| 1778033247 | 20.56° C | 68% | 1015.8 hPa | 0 mm | 1.79 m/s, 168° | - | - |
| 1778032947 | 20.56° C | 68% | 1015.7 hPa | 0 mm | 1.79 m/s, 134° | - | - |
| 1778032647 | 20.56° C | 67% | 1015.7 hPa | 0 mm | 1.34 m/s, 152° | - | - |
| 1778032347 | 21.11° C | 67% | 1015.7 hPa | 0 mm | 1.79 m/s, 121° | - | - |
| 1778032047 | 21.11° C | 67% | 1015.6 hPa | 0 mm | 2.24 m/s, 186° | - | - |
| 1778031747 | 21.11° C | 67% | 1015.6 hPa | 0 mm | 1.79 m/s, 189° | - | - |
| 1778031447 | 21.11° C | 67% | 1015.6 hPa | 0 mm | 2.24 m/s, 139° | - | - |
* Rain latest hour (hover to see other rain measurements)
** Current wind speed in m/s (hover to see current wind gust speed)